Lamar, CO

6:27 PM MST on December 10, 2016 (GMT -0700)
Lamar Municipal

Weather History for KLAA - April, 2014

Change the Weather History Date:

Sunday, April 13, 2014

  Actual Average Record
Temperature  
Mean Temperature 47 °F 51 °F  
Max Temperature 67 °F 68 °F 93 °F (2006)
Min Temperature 26 °F 35 °F 8 °F (1997)
Degree Days  
Heating Degree Days 18 14  
Month to date heating degree days 175 202  
Since 1 July heating degree days 5144 5211  
Cooling Degree Days 0 0  
Month to date cooling degree days 5 0  
Year to date cooling degree days 5 0  
Moisture  
Dew Point 26 °F    
Average Humidity 54    
Maximum Humidity 84    
Minimum Humidity 24    
Precipitation  
Precipitation 0.05 in 0.04 in 0.67 in (1960)
Month to date precipitation 0.21 0.41  
Year to date precipitation 0.74 1.92  
Sea Level Pressure  
Sea Level Pressure 29.91 in    
Wind  
Wind Speed 20 mph (NNE)    
Max Wind Speed 32 mph    
Max Gust Speed 42 mph    
Visibility 5 miles    
Events Rain , Snow    
T = Trace of Precipitation, MM = Missing Value Source: NWS Daily Summary

Daily Weather History Graph

Daily Weather History Graph

Search for Another Location

Airport or City:

Trip Planner

Search our weather history database for the weather conditions in past years. The results will help you decide how hot, cold, wet, or windy it might be!

Date:

Astronomy

Apr. 13, 2014 Rise Set
Actual Time 6:18 AM MDT 7:25 PM MDT
Civil Twilight 5:50 AM MDT 7:52 PM MDT
Nautical Twilight 5:18 AM MDT 8:24 PM MDT
Astronomical Twilight 4:45 AM MDT 8:58 PM MDT
Moon 6:06 PM MDT (4/13) 5:16 AM MDT (4/13)
Length of Visible Light 14h 01m
Length of Day
13h 06m
Waxing Gibbous, 97% of the Moon is Illuminated
Apr 13
Waxing Gibbous
Apr 15
Full
Apr 22
Last Quarter
Apr 29
New
May 6
First Quarter

Hourly Weather History & Observations

Time (MDT) Temp. Windchill Dew Point Humidity Pressure Visibility Wind Dir Wind Speed Gust Speed Precip Events Conditions
12:53 AM 66.9 °F - 28.9 °F 24% 29.38 in 10.0 mi WSW 10.4 mph - N/A   Overcast
1:53 AM 61.0 °F - 39.0 °F 44% 29.40 in 10.0 mi NE 12.7 mph - N/A   Clear
2:53 AM 59.0 °F - 39.9 °F 49% 29.42 in 9.0 mi ENE 21.9 mph 26.5 mph N/A   Partly Cloudy
3:53 AM 54.0 °F - 37.0 °F 53% 29.42 in 9.0 mi NE 19.6 mph - N/A   Clear
4:53 AM 52.0 °F - 33.1 °F 49% 29.46 in 9.0 mi NE 13.8 mph 26.5 mph N/A   Clear
5:53 AM 48.9 °F - 32.0 °F 52% 29.52 in 9.0 mi NNE 18.4 mph 25.3 mph N/A   Clear
6:53 AM 48.0 °F - 30.9 °F 52% 29.60 in 8.0 mi North 11.5 mph 20.7 mph N/A   Mostly Cloudy
7:53 AM 48.9 °F - 32.0 °F 52% 29.63 in 8.0 mi NNE 19.6 mph - N/A   Mostly Cloudy
8:53 AM 44.1 °F 35.0 °F 35.1 °F 71% 29.68 in 5.0 mi North 24.2 mph 31.1 mph 0.00 in Rain Light Rain
9:08 AM 43.0 °F 32.9 °F 35.1 °F 74% 29.77 in 6.0 mi NNE 27.6 mph 34.5 mph 0.01 in Rain Light Rain
9:53 AM 39.9 °F 28.8 °F 33.1 °F 77% 29.72 in 8.0 mi North 27.6 mph 38.0 mph 0.01 in   Overcast
10:53 AM 39.0 °F 27.4 °F 28.9 °F 67% 29.75 in 10.0 mi NNE 28.8 mph 42.6 mph N/A   Overcast
11:02 AM 39.9 °F 29.2 °F 30.0 °F 68% 29.83 in 10.0 mi NNE 25.3 mph 35.7 mph N/A   Overcast
11:29 AM 39.0 °F 27.8 °F 28.9 °F 67% 29.84 in 10.0 mi NNE 26.5 mph 38.0 mph N/A   Overcast
11:53 AM 39.0 °F 28.3 °F 28.0 °F 65% 29.78 in 10.0 mi NNE 24.2 mph 31.1 mph N/A   Overcast
12:05 PM 39.0 °F 29.0 °F 28.9 °F 67% 29.85 in 10.0 mi North 20.7 mph - N/A   Overcast
12:53 PM 39.0 °F 28.8 °F 28.0 °F 65% 29.80 in 9.0 mi NE 21.9 mph - N/A   Overcast
1:53 PM 37.9 °F 26.6 °F 26.1 °F 62% 29.81 in 9.0 mi NNE 25.3 mph 33.4 mph N/A   Overcast
2:53 PM 39.0 °F 29.0 °F 27.0 °F 62% 29.82 in 9.0 mi NNE 20.7 mph 33.4 mph N/A   Overcast
3:53 PM 37.9 °F 27.3 °F 27.0 °F 65% 29.85 in 10.0 mi North 21.9 mph 29.9 mph N/A   Overcast
4:53 PM 34.0 °F 22.1 °F 25.0 °F 70% 29.88 in 10.0 mi NNE 21.9 mph 31.1 mph N/A   Overcast
6:03 PM 32.0 °F 19.8 °F 24.1 °F 73% 29.98 in 1.8 mi North 20.7 mph 31.1 mph 0.00 in Snow Light Snow
6:11 PM 30.9 °F 18.1 °F 25.0 °F 79% 30.00 in 1.0 mi North 21.9 mph - 0.02 in Snow Light Snow
6:22 PM 30.0 °F 17.9 °F 25.0 °F 82% 29.99 in 0.5 mi North 18.4 mph - 0.03 in Snow Snow
6:39 PM 30.0 °F 17.2 °F 25.0 °F 82% 29.99 in 1.2 mi North 20.7 mph 28.8 mph 0.03 in Snow Light Snow
6:50 PM 30.2 °F 17.8 °F 24.8 °F 80% 30.00 in 1.8 mi North 19.6 mph - 0.03 in Snow Light Snow
6:53 PM 30.0 °F 18.7 °F 25.0 °F 82% 30.01 in 1.8 mi NNE 16.1 mph - 0.03 in Snow Light Snow
7:06 PM 28.9 °F 16.1 °F 24.1 °F 82% 29.99 in 1.0 mi NNE 19.6 mph 28.8 mph 0.00 in Snow Light Snow
7:14 PM 28.9 °F 15.1 °F 24.1 °F 82% 29.99 in 1.5 mi NNE 23.0 mph 31.1 mph 0.00 in Snow Light Snow
7:24 PM 28.9 °F 14.5 °F 24.1 °F 82% 29.99 in 2.5 mi NNE 25.3 mph 32.2 mph 0.00 in Snow Light Snow
7:35 PM 28.9 °F 14.8 °F 24.1 °F 82% 30.00 in 3.0 mi NNE 24.2 mph - 0.00 in Snow Light Snow
7:53 PM 28.9 °F 16.1 °F 24.1 °F 82% 30.04 in 8.0 mi North 19.6 mph 27.6 mph 0.00 in   Overcast
8:03 PM 28.9 °F 13.5 °F 21.9 °F 75% 30.06 in 8.0 mi NNE 29.9 mph 36.8 mph N/A   Overcast
8:27 PM 28.0 °F 14.3 °F 23.0 °F 81% 30.06 in 1.8 mi North 21.9 mph 27.6 mph 0.00 in Snow Light Snow
8:37 PM 28.0 °F 14.3 °F 21.9 °F 78% 30.07 in 2.0 mi North 21.9 mph - 0.00 in Snow Light Snow
8:46 PM 28.0 °F 15.7 °F 21.9 °F 78% 30.09 in 3.0 mi North 17.3 mph 28.8 mph 0.00 in Snow Light Snow
8:53 PM 28.0 °F 15.7 °F 21.9 °F 78% 30.11 in 5.0 mi North 17.3 mph - 0.00 in Snow Light Snow
9:05 PM 28.0 °F 13.6 °F 23.0 °F 81% 30.10 in 3.0 mi North 24.2 mph 29.9 mph 0.00 in Snow Light Snow
9:18 PM 27.0 °F 13.9 °F 21.9 °F 81% 30.11 in 2.5 mi NNE 18.4 mph 27.6 mph 0.00 in Snow Light Snow
9:26 PM 27.0 °F 13.9 °F 21.9 °F 81% 30.12 in 3.0 mi NNE 18.4 mph 28.8 mph 0.00 in Snow Light Snow
9:42 PM 27.0 °F 16.1 °F 21.9 °F 81% 30.13 in 2.0 mi North 12.7 mph - 0.01 in Snow Light Snow
9:53 PM 27.0 °F 13.9 °F 23.0 °F 85% 30.17 in 1.8 mi North 18.4 mph 24.2 mph 0.01 in Snow Light Snow
10:07 PM 27.0 °F 14.3 °F 23.0 °F 85% 30.12 in 1.8 mi North 17.3 mph - 0.00 in Snow Light Snow
10:14 PM 27.0 °F 13.2 °F 21.9 °F 81% 30.12 in 2.0 mi North 20.7 mph 26.5 mph 0.00 in Snow Light Snow
10:25 PM 27.0 °F 12.8 °F 21.9 °F 81% 30.14 in 1.2 mi NNE 21.9 mph 33.4 mph 0.00 in Snow Light Snow
10:37 PM 27.0 °F 13.9 °F 21.9 °F 81% 30.13 in 1.0 mi NNE 18.4 mph 28.8 mph 0.00 in Snow Light Snow
10:48 PM 26.6 °F 14.3 °F 21.2 °F 80% 30.15 in 0.8 mi North 16.1 mph - 0.00 in Snow Light Snow
10:53 PM 27.0 °F 16.1 °F 23.0 °F 85% 30.20 in 0.8 mi North 12.7 mph 25.3 mph 0.00 in Snow Light Snow
11:11 PM 26.1 °F 14.0 °F 23.0 °F 88% 30.16 in 1.0 mi North 15.0 mph - 0.00 in Snow Light Snow
11:34 PM 26.1 °F 12.0 °F 21.9 °F 84% 30.17 in 1.2 mi NNE 20.7 mph 28.8 mph 0.00 in Snow Light Snow